Location: Bourg-d�Oueil
(42.8588°N, 0.4991°E)
Time: 17:16:18
(UTC+00:00)

Cosmos 1992 Rocket - Pass Details

Date: 16 June 2021
Orbit: 758 x 766 km, 74.0° (Epoch: 04 August)

Event Time Altitude Azimuth Distance (km) Brightness Sun altitude
Exits shadow 22:32:33 43° 134° (SE) 1,063 4.3 -20.8°
Maximum altitude 22:33:26 47° 104° (ESE) 998 4.3 -20.9°
Drops below altitude 10° 22:38:26 10° 31° (NNE) 2,305 7.0 -21.2°
Sets 22:40:53 0° 26° (NNE) 3,237 7.9 -21.4°
